This is the latest recevied weather packets stored in our database for station/object KP4OZ. If no packets are shown the sender has not sent any weather packets the latest 10 day(s).
| Time | Temp. | Humidity | Pressure | Rain* | Wind** | Luminosity | Snow |
|---|---|---|---|---|---|---|---|
| 1777906338 | 32.22° C | 55% | 1016.8 hPa | 0 mm | - | - | - |
| 1777906035 | 32.78° C | 56% | 1016.9 hPa | 0 mm | - | - | - |
| 1777905731 | 32.22° C | 55% | 1016.7 hPa | 0 mm | - | - | - |
| 1777905429 | 31.67° C | 54% | 1016.5 hPa | 0 mm | - | - | - |
| 1777905127 | 31.67° C | 55% | 1016.5 hPa | 0 mm | - | - | - |
| 1777904823 | 31.67° C | 57% | 1016.7 hPa | 0 mm | - | - | - |
| 1777904520 | 32.22° C | 56% | 1016.7 hPa | 0 mm | - | - | - |
| 1777904216 | 31.67° C | 57% | 1016.9 hPa | 0 mm | - | - | - |
| 1777903914 | 31.11° C | 59% | 1016.9 hPa | 0 mm | - | - | - |
| 1777903611 | 31.11° C | 58% | 1016.9 hPa | 0 mm | - | - | - |
| 1777903306 | 31.67° C | 59% | 1016.8 hPa | 0 mm | - | - | - |
| 1777903003 | 31.67° C | 59% | 1016.9 hPa | 0 mm | - | - | - |
| 1777902699 | 31.11° C | 59% | 1016.9 hPa | 0 mm | - | - | - |
| 1777902397 | 30.56° C | 61% | 1016.7 hPa | 0 mm | - | - | - |
| 1777902093 | 31.11° C | 60% | 1017 hPa | 0 mm | - | - | - |
| 1777901792 | 31.11° C | 59% | 1017 hPa | 0 mm | - | - | - |
| 1777901489 | 30.56° C | 61% | 1017.1 hPa | 0 mm | - | - | - |
| 1777901186 | 30.56° C | 61% | 1016.9 hPa | 0 mm | - | - | - |
| 1777900884 | 30.56° C | 61% | 1017.2 hPa | 0 mm | - | - | - |
| 1777900581 | 30.56° C | 61% | 1017 hPa | 0 mm | - | - | - |
| 1777900278 | 30.56° C | 60% | 1017.2 hPa | 0 mm | - | - | - |
| 1777899975 | 30.56° C | 61% | 1017 hPa | 0 mm | - | - | - |
| 1777899672 | 30° C | 61% | 1017.2 hPa | 0 mm | - | - | - |
| 1777899369 | 30.56° C | 61% | 1017.3 hPa | 0 mm | - | - | - |
| 1777899067 | 30° C | 62% | 1017.2 hPa | 0 mm | - | - | - |
* Rain latest hour (hover to see other rain measurements)
** Current wind speed in m/s (hover to see current wind gust speed)